Regional Weather Roundup
Issued by NWS

Home | Current Version | Previous Version | Text Only | Print | Product List | Glossary On
Versions: 1 2 3 4 5 6 7 8 9 10 11 12 13 14 15 16 17 18 19 20 21 22 23 24 25 26 27 28
000
ASCA42 TJSJ 250810
RWRPR
PUERTO RICO/U.S. VIRGIN ISLANDS HOURLY WEATHER ROUNDUP
NATIONAL WEATHER SERVICE SAN JUAN PR
400 AM AST SAT NOV 25 2017

PRZ001>002-007>008-010-250900-
PUERTO RICO

CITY           SKY/WX    TMP DP  RH WIND       PRES   REMARKS
SAN JUAN LMM   PTCLDY    79  77  94 CALM      29.93S
AGUADILLA      CLEAR     75  72  88 SE3       29.95F
$$

VIZ001>002-250900-
U.S. VIRGIN ISLANDS

CITY           SKY/WX    TMP DP  RH WIND       PRES   REMARKS
CHARLOTTE AMA    N/A    N/A N/A N/A MISG      29.94S
$$

HOURLY WEATHER ROUNDUP FOR THE NEWS MEDIA

CITY           SKY/WX    TMP DP  RH WIND       PRES   REMARKS
ORLANDO        FOG       56  56 100 CALM      29.98S VSB 1/4
NEW YORK       CLEAR     38  35  89 SW9       29.91F WCI  31
NEWARK         PTCLDY    38  29  70 S5        29.89F WCI  34
CHICAGO        CLEAR     51  40  65 NW22G30   29.68R
HARTFORD       CLEAR     30  29  96 CALM      29.89F
BOSTON         CLEAR     40  35  83 S7        29.88F
DALLAS         PTCLDY    58  39  49 S14       29.84F
PHILADELPHIA   CLEAR     38  32  79 CALM      29.90F
LOS ANGELES    CLEAR     66  52  60 E5        29.94S
WASHINGTON DC  CLOUDY    34  28  79 CALM      29.87S



USA.gov is the U.S. government's official web portal to all federal, state and local government web resources and services.